Location: Huntsville
(34.7300°N, 86.5860°W)
Time: 14:19:27
(UTC-05:00)

Daily predictions for brighter satellites

Satellite Brightness Start Highest point End
(mag) Time Altitude Azimuth Time Altitude Azimuth Time Altitude Azimuth
Cosmos 1733 3.2 20:28:52 10° N 20:32:37 64° E 20:36:21 10° SSE
USA 186 1.8 20:29:42 10° SSE 20:33:02 89° WSW 20:36:12 10° N
Resurs 1-3 3.8 20:29:00 10° SSE 20:33:16 54° ENE 20:37:33 10° N
Cosmos 2263 Rocket 2.3 20:28:32 10° SSW 20:34:14 88° WNW 20:39:56 10° NNE
NOSS 2-3 (C) 3.9 20:33:13 10° SSW 20:37:40 80° WNW 20:42:43 10° NNE
Cosmos 1758 3.4 20:36:02 10° N 20:40:09 87° W 20:44:12 10° S
Cosmos 1603 3.9 20:35:42 10° NNW 20:41:26 79° WSW 20:47:09 10° SSE
YAOGAN 6 3.1 20:38:04 10° S 20:41:34 60° W 20:45:04 10° NNW
Cosmos 1602 Rocket 3.6 20:37:18 10° S 20:41:46 87° E 20:46:15 10° N
USA 215 3.4 20:38:01 10° SE 20:44:31 71° NE 20:51:03 10° NW
SL-8 R/B 4.2 20:42:56 10° SSW 20:47:20 36° SE 20:51:45 10° ENE
Cosmos 1812 Rocket 3.8 20:43:39 10° N 20:47:53 50° E 20:52:08 10° SSE
OAO 3 Rocket 3.2 20:43:09 10° WSW 20:48:06 73° SSE 20:53:01 10° E
Cosmos 1707 2.7 20:49:43 10° S 20:53:36 90° NNE 20:57:27 10° N
Resurs 01 Rocket 1.6 20:49:22 10° SSE 20:53:46 90° E 20:58:14 10° NNW
Cosmos 1315 Rocket 3.7 20:51:38 10° SSE 20:55:08 30° E 20:58:43 10° NNE
Cosmos 1758 Rocket 4.3 20:54:21 10° SSE 20:58:24 35° E 21:02:27 10° NNE
Spot 2 Rocket 3.5 20:54:34 10° SSE 20:59:34 73° ENE 21:04:38 10° N
Cosmos 1953 2.6 20:56:01 10° NNW 20:59:59 68° W 21:03:57 10° S
Cosmos 1452 Rocket 3.9 20:54:56 10° N 21:00:04 50° ENE 21:04:24 14° SE
Cosmos 468 4.5 20:55:34 10° S 21:00:50 70° ESE 21:06:10 10° NNE
Cosmos 158 Rocket 4.2 20:56:18 10° SSW 21:01:38 78° WNW 21:06:53 10° NNE
Cosmos 1420 Rocket 4.4 20:57:30 10° N 21:02:28 45° ENE 21:06:25 16° SE
Cosmos 2056 Rocket 4.3 20:59:26 10° NNW 21:04:26 51° WSW 21:09:28 10° S
Cosmos 1674 4.4 21:08:26 15° E 21:09:07 15° E 21:11:25 10° NE
Hubble Space Telescope 2.5 21:07:41 10° WSW 21:10:36 19° SSW 21:12:25 14° SSE
Centaur AC-125 3.8 21:09:51 10° SSW 21:11:12 12° S 21:11:13 12° S
H-2A R/B 2.7 21:11:50 17° SE 21:15:25 40° ENE 21:20:24 10° N
Cosmos 1437 4.4 21:15:55 10° NNE 21:18:13 19° ENE 21:18:41 18° E
Cosmos 2278 Rocket 4.0 21:23:34 12° E 21:23:34 12° E 21:25:23 10° ENE
Cosmos 1400 Rocket 4.0 21:20:11 10° SSW 21:24:03 43° W 21:27:53 10° N
Cosmos 1825 Rocket 3.5 21:19:41 10° S 21:24:09 88° E 21:28:38 10° N
Cosmos 1943 3.7 21:18:47 10° NNW 21:24:19 58° WSW 21:29:21 12° S
Aureole 1 Rocket 2.7 21:22:32 10° SSW 21:25:31 62° WNW 21:28:58 10° N
Cosmos 1269 Rocket 4.0 21:21:52 10° S 21:27:06 64° ESE 21:32:21 10° NNE
Cosmos 2285 Rocket 3.9 21:22:19 10° S 21:28:38 74° ESE 21:34:56 10° NNE
ERS-2 3.5 21:25:16 10° SSW 21:28:40 37° W 21:32:06 10° NNW
Terra 3.9 21:31:36 11° E 21:33:02 12° ENE 21:34:59 10° NE
DMSP B5D2-2 4.5 21:30:22 10° NNE 21:35:19 43° E 21:37:55 25° SSE
Cosmos 921 Rocket 4.5 21:32:10 10° NNE 21:35:50 24° ENE 21:37:08 21° E
ARGOS 3.1 21:32:46 20° SSE 21:36:35 82° ENE 21:42:02 10° N
Cosmos 1726 4.0 21:34:29 10° NE 21:36:51 16° ENE 21:36:55 16° ENE
Cosmos 1346 Rocket 3.5 21:34:53 10° N 21:38:39 38° ENE 21:39:41 32° ESE
ATLAS 3B R/B 4.3 21:33:50 10° N 21:38:43 21° NE 21:43:02 12° E
Cosmos 494 Rocket 4.3 21:38:00 23° SSE 21:40:54 46° ESE 21:45:55 10° NNE
Cosmos 1844 3.8 21:39:21 15° S 21:43:53 54° ESE 21:49:28 10° NNE
Cosmos 1844 Rocket 2.6 21:41:38 10° SSW 21:47:17 79° ESE 21:52:57 10° NNE
KORONAS-FOTON 4.4 21:47:23 36° E 21:47:37 36° E 21:51:14 10° NNE
Meteor 1-24 Rocket 3.9 21:42:35 10° S 21:48:35 88° W 21:54:39 10° N
MetOp-A 4.2 21:45:49 23° S 21:49:16 80° WSW 21:54:39 10° NNW
OAO 3 Copernicus 4.2 21:48:42 10° W 21:53:46 77° SSW 21:55:51 35° ESE
Nadezhda 2 Rocket 4.4 21:51:24 10° N 21:57:41 90° W 22:01:18 27° S
ATLAS 2AS CENTAUR R/B 3.1 21:51:33 10° SSW 21:59:15 81° WNW 22:07:24 10° NNE
Cosmos 2251 Rocket 4.2 21:59:38 33° ESE 22:00:04 34° E 22:04:50 10° NE
SPOT 5 3.3 21:59:19 37° ESE 22:00:51 51° ENE 22:05:53 10° N
Centaur D-1A AC-35 3.9 22:01:44 10° SW 22:03:10 16° SSW 22:03:10 16° SSW
Iridium 18 4.2 22:07:53 79° NW 22:07:53 79° NW 22:11:16 10° N
ERS-1 Rocket 2.9 22:06:47 38° S 22:08:46 83° WSW 22:13:50 10° NNW
Cosmos 1238 Rocket 4.1 22:08:12 20° WSW 22:09:26 26° W 22:12:00 10° NNW
Lacrosse 5 3.6 22:05:23 10° WSW 22:09:57 33° NW 22:14:32 10° NNE
IGS 5A 4.4 22:12:05 33° ENE 22:12:07 33° ENE 22:15:52 10° N
Cosmos 1553 Rocket 3.8 22:09:11 32° S 22:12:12 78° E 22:18:16 10° N
Cosmos 1908 3.0 22:11:12 10° N 22:15:05 80° E 22:15:12 78° ESE
Cosmos-2242 3.4 22:13:22 10° NNW 22:17:42 61° W 22:18:55 43° SSW
Meteor 2-1 Rocket 4.2 22:14:53 10° N 22:20:50 81° E 22:22:44 45° SSE
Cosmos 1842 Rocket 3.9 22:19:11 10° N 22:23:15 48° ENE 22:23:15 48° ENE
Meteor 1-29 4.4 22:22:21 10° NNE 22:24:12 28° NE 22:24:12 28° NE
Cosmos 2084 3.2 22:23:46 10° NNW 22:27:20 73° N 22:27:20 73° N
OAO 3 Rocket 3.1 22:26:43 10° W 22:31:41 86° N 22:32:33 61° E
Cosmos 1626 4.3 22:35:20 17° NE 22:35:20 17° NE 22:36:30 10° NE
CZ-2C R/B 3.2 22:31:09 10° NNE 22:35:50 40° E 22:35:50 40° E
Helios 1A 3.1 22:36:24 66° WSW 22:36:32 66° WSW 22:40:43 10° NNW
Cosmos 1340 3.1 22:32:45 10° N 22:35:53 58° N 22:35:53 58° N
NOSS 3-4 (A) 3.4 22:35:38 53° SSE 22:36:39 60° ESE 22:42:51 10° NE
NOSS 3-4 (C) 3.4 22:35:49 53° SSE 22:36:45 59° ESE 22:42:55 10° NE
Aurora 2 Rocket 4.4 22:31:46 10° WSW 22:38:49 43° S 22:39:46 42° SSE
Cosmos 1386 Rocket 4.4 22:35:23 10° N 22:41:26 67° E 22:42:28 57° SE
Cosmos 1300 3.8 22:44:23 10° N 22:46:59 38° NNE 22:46:59 38° NNE
Landsat 7 4.0 22:50:31 59° WSW 22:50:50 61° W 22:55:34 10° NNW
Meteor 1-21 Rocket 4.4 22:49:45 48° SSW 22:51:24 75° W 22:57:16 10° N
Helios 1B rocket 3.3 22:50:09 10° N 22:54:04 45° WNW 22:54:22 44° W
SPOT 1/Viking Rocket 4.1 22:53:26 43° SW 22:54:18 48° W 22:59:17 10° NNW
H-2A R/B 4.1 22:52:28 15° SW 22:54:56 21° W 22:58:54 10° NW
Cosmos 2278 Rocket 2.3 23:05:20 55° SW 23:06:30 71° WNW 23:12:11 10° NNE
Cosmos 2221 3.2 23:02:47 10° N 23:06:07 52° N 23:06:07 52° N
Terra 2.2 23:10:29 59° W 23:10:29 59° W 23:14:55 10° NNW
Cosmos 1745 Rocket 4.4 23:04:39 10° NNW 23:10:47 55° W 23:12:13 46° SW
Cosmos 1726 4.2 23:09:01 10° NW 23:11:29 23° WNW 23:11:29 23° WNW
COSMOS 2406 3.6 23:13:48 10° NNW 23:19:21 50° WSW 23:19:32 50° WSW
BREEZE-M DEB (TANK) 4.0 23:15:24 10° SW 23:25:30 70° NW 23:29:25 10° NE
USA 238 DEB 3.9 23:19:41 10° NW 23:26:42 58° WSW 23:27:33 55° SW
USA 238 3.9 23:19:47 10° NW 23:26:49 59° WSW 23:27:39 56° SW
Spot 4 4.3 23:30:38 58° N 23:30:38 58° N 23:34:36 10° N
ATLAS 3B R/B 2.5 23:23:25 10° NW 23:30:00 72° WSW 23:30:17 71° SW
CZ-2C R/B 3.9 23:34:52 46° WSW 23:35:06 47° W 23:40:42 10° NNW
ALOS 2 4.5 23:41:19 23° NE 23:41:19 23° NE 23:43:43 10° NNE
NOSS 3-2 (A) 4.0 23:32:44 10° NW 23:40:31 77° WSW 23:41:45 66° S
Cosmos 1241 Rocket 4.4 23:41:20 71° ENE 23:41:20 71° ENE 23:46:59 10° NNE
Cosmos 1709 Rocket 4.1 23:38:21 10° NNW 23:44:27 61° W 23:44:40 60° WSW
RESURS DK-1 4.4 23:48:17 25° NNE 23:48:17 25° NNE 23:50:06 10° NNE
Cosmos 2297 3.9 23:47:58 69° NNE 23:47:58 69° NNE 23:52:58 10° NNE
ATLAS 3B CENTAUR R/B 4.3 23:41:30 10° WSW 23:48:46 29° SW 23:48:46 29° SW
ATLAS 5 CENTAUR R/B 2.9 23:54:46 38° NW 23:54:46 38° NW 23:58:43 10° NNE
